Showing default

COSMOS 2586, 63289

Orbit data source: Space-Track

COSMOS 2586, 63289 is a payload satellite owned by VVKO VKS (CIS) in LEO that was launched on Sun, 16 Mar 2025 UTC via an ANGARA-1.2 launch vehicle from the Plesetsk Missile And Space Complex (PKMTR). Payload-class satellites include a variety of spacecraft equipped with specific instruments for various scientific and technological missions. These include communications satellites like Starlink; space stations such as the ISS; scientific satellites like the Hubble; Earth observation satellites from companies like Planet Labs, Umbra, and HawkEye 360; GPS; miniature CubeSats for education and research; and military/defense satellites.

Loading next visibility...
Identifier
63289, 2025-054B
Orbit
LEO
Last TLE update
1 day ago
Origin
Manufacturer
Resehetnev ISS
Mission
Operational spacecraft
Bus & Motor
STRELA-3M, Unknown motor
Mass
280 kg wet, 280 kg dry
Launch date (UTC)
2025-03-16 (1 month ago)
Launch vehicle
ANGARA-1.2
Launch site
Plesetsk Missile And Space Complex (PKMTR)
Object type
Payload
Rocket body
Debris
Shape & HBR
Unknown
Radar Cross Section
Large (>1 m²)

Expand to show TLE details & history

TLE from 1 day ago
0 COSMOS 2586
1 63289U 25054B   25118.95927055  .00000036  00000-0  18736-3 0  9990
2 63289  82.4933 336.4039 0019447 206.1232 153.8868 12.42776743  5397
Epoch: 2025-04-28T23:01Z
Definitive object data (Epoch: 2025-04-28T23:01:20.975Z)
Latitude
-0.00003°
Longitude
133.90069°
Altitude
1,511.309 km
Speed
7.103 km/s
True Right ascension
22h 25m 36s
True Declination
0° 00' 00"
Sunlit
Object was in daylight at TLE epoch
Visualization TLE readout
Latitude
-67.64987°
Longitude
114.41054°
Altitude
1,519.866 km
Speed
7.105 km/s
Apparent Right ascension
02h 30m 20s
Apparent Declination
-68° 53' 20"
Sunlit
Object is in daylight
Visualization observer readout
Local Sidereal Time
16:59:39
Azimuth
157.67° S
Elevation
-54.912°
Doppler factor
1
Orbital elements
Apogee altitude
1,507.511 km
Perigee altitude
1,476.9 km
Semi-major axis
7,870.343 km
Eccentricity
0.0019447
Inclination
82.4933°
RAAN
336.4039°
Arg. of periapsis
206.1232°
True anomaly
153.98467°
Mean anomaly
153.8868°
Eccentric anomaly
153.93576°
Mean motion
3.10851 °/min
BSTAR
0.00018736
Orbital period
115.81 mins
Loading maneuver chart data...
Loading SW <> Apogee altitude chart data...
Loading historical data...
Loading historical data...
Loading historical data...
Loading historical data...
Loading historical data...
Loading historical data...
Loading historical data...
Other satellites on launch #54 in the year 2025 (2025-03-16 UTC)

COSMOS 2586 Visibility forecast

Observer location: undefined°, undefined°

Span
Click to sort rows by Start time (UTC) header in descending order
Start Az.
Max El. time (UTC)
Max El. Az.
Max El.
End time (UTC)
End Az.
14 mins2025-04-30 13:45:48.695Z139.452° SSE2025-04-30 13:52:48.695Z84.358° E27.135°2025-04-30 13:59:48.695Z28.304° NE
15 mins2025-04-30 15:41:48.695Z207.776° SW2025-04-30 15:48:48.695Z273.183° WNW39.687°2025-04-30 15:56:48.695Z357.998° N
6 mins2025-04-30 23:58:48.695Z37.646° NE2025-05-01 00:01:48.695Z59.29° ENE13.333°2025-05-01 00:04:48.695Z80.885° E
16 mins2025-05-01 01:52:48.695Z357.362° N2025-05-01 01:59:48.695Z56.549° ENE43.345°2025-05-01 02:08:48.695Z164.972° S
10 mins2025-05-01 03:51:48.695Z316.211° NNW2025-05-01 03:55:48.695Z283.479° WNW21.165°2025-05-01 04:01:48.695Z236.034° WSW
|